Regional Weather Roundup
Issued by NWS

Home | Current Version | Previous Version | Graphics & Text | Print | Product List | Glossary On
Versions: 1 2 3 4 5 6 7 8 9 10 11 12 13 14 15 16 17 18 19 20 21 22 23 24 25 26 27 28 29 30 31 32 33 34 35 36 37 38 39 40 41 42 43 44 45 46 47 48 49 50
000
ASUS43 KDTX 280601
RWRMI
MICHIGAN HOURLY REGIONAL WEATHER ROUNDUP
NATIONAL WEATHER SERVICE DETROIT/PONTIAC MI
200 AM EDT TUE APR 28 2015

NOTE: "FAIR" INDICATES FEW OR NO CLOUDS BELOW 12,000 FEET WITH NO
SIGNIFICANT WEATHER AND/OR OBSTRUCTION TO VISIBILITY.

MIZ047>049-052>055-059>063-066>070-074>076-081>083-280700-
SOUTHEAST LOWER MICHIGAN

CITY           SKY/WX    TMP DP  RH WIND       PRES   REMARKS
ADRIAN         CLEAR     36  32  85 CALM      30.09F
6HR MIN TEMP:  36; 6HR MAX TEMP:  50;

ALMA           CLEAR     40  35  80 CALM      30.11F
ANN ARBOR      PTCLDY    32  30  92 CALM      30.09S
BAD AXE        PTCLDY    32  29  88 CALM      30.11S
CARO           CLEAR     31  30  95 CALM      30.11S
DETROIT CITY   CLEAR     39  33  79 CALM      30.10S
6HR MIN TEMP:  38; 6HR MAX TEMP:  49;

DETROIT        MOCLDY    42  34  73 N3        30.11R
6HR MIN TEMP:  40; 6HR MAX TEMP:  51;

FLINT          CLOUDY    44  31  60 CALM      30.12S
6HR MIN TEMP:  41; 6HR MAX TEMP:  51;

GROSSE ILE     PTCLDY    39  36  87 CALM      30.09S
HILLSDALE      CLEAR     35  33  90 CALM      30.08F
6HR MIN TEMP:  35; 6HR MAX TEMP:  49;

HOWELL         CLEAR     39  33  79 CALM      30.10S
6HR MIN TEMP:  37; 6HR MAX TEMP:  49;


CITY           SKY/WX    TMP DP  RH WIND       PRES   REMARKS
JACKSON        CLEAR     34  31  88 CALM      30.09S
6HR MIN TEMP:  30; 6HR MAX TEMP:  48;

LAMBERTVILLE   PTCLDY    36  32  87 CALM      30.10S
LANSING        CLOUDY    41  32  70 E3        30.12R
6HR MIN TEMP:  38; 6HR MAX TEMP:  51;

LAPEER         FAIR      32  30  93 CALM      30.11S
MASON          CLEAR     33  30  91 W5        30.11R WCI  28
MONROE         PTCLDY    36  32  87 CALM      30.08F
PONTIAC        CLEAR     36  31  82 N3        30.09S
6HR MIN TEMP:  34; 6HR MAX TEMP:  48;

PORT HOPE        N/A     43  36  76 VRB5      30.09R
6HR MIN TEMP:  41; 6HR MAX TEMP:  45;

PORT HURON     PTCLDY    36  32  87 NW3       30.10S
TRI CITIES     CLEAR     43  34  70 CALM      30.12S
6HR MIN TEMP:  43; 6HR MAX TEMP:  51;

MIDLAND        FAIR      37  33  85 CALM      30.11S
TROY           PTCLDY    42  32  69 NW3       30.12S
SAGINAW HB     CLEAR     39  32  75 CALM      30.11S
$$
MIZ043>046-050>051-056>058-064>065-071>073-077>080-280700-
SOUTHWEST LOWER MICHIGAN

CITY           SKY/WX    TMP DP  RH WIND       PRES   REMARKS
BATTLE CREEK   CLEAR     39  33  79 CALM      30.09F
6HR MIN TEMP:  38; 6HR MAX TEMP:  51;

BENTON HARBOR  CLEAR     33  32  96 CALM      30.11S
6HR MIN TEMP:  32; 6HR MAX TEMP:  43;

BIG RAPIDS     CLEAR     37  32  82 CALM      30.10S
6HR MIN TEMP:  37; 6HR MAX TEMP:  53;

COLDWATER      CLEAR     34  32  92 CALM      30.09F
6HR MIN TEMP:  34; 6HR MAX TEMP:  47;

FREMONT        FAIR      42  30  64 NE3       30.10S
HOLLAND        CLEAR     38  34  85 CALM      30.11R
6HR MIN TEMP:  38; 6HR MAX TEMP:  51;

GRAND RAPIDS   CLEAR     39  32  76 CALM      30.09S
6HR MIN TEMP:  39; 6HR MAX TEMP:  53;

IONIA          FAIR      42  34  73 E8        30.09S
KALAMAZOO      CLEAR     38  33  82 CALM      30.09F
6HR MIN TEMP:  37; 6HR MAX TEMP:  51;

LUDINGTON      CLEAR     38  34  85 N3        30.12S
6HR MIN TEMP:  37; 6HR MAX TEMP:  51;

MARSHALL       CLEAR     33  31  92 CALM      30.09S
MOUNT PLEASANT CLEAR     38  35  85 CALM      30.11S
6HR MIN TEMP:  38; 6HR MAX TEMP:  53;

MUSKEGON       CLEAR     42  34  73 N5        30.10S
6HR MIN TEMP:  39; 6HR MAX TEMP:  54;

SOUTH HAVEN    CLEAR     34  32  92 CALM      30.10S
$$
MIZ016>042-280700-
NORTHERN LOWER MICHIGAN

CITY           SKY/WX    TMP DP  RH WIND       PRES   REMARKS
BEAVER ISLAND  CLOUDY    41  33  73 N5        30.15S
6HR MIN TEMP:  40; 6HR MAX TEMP:  48;

BELLAIRE       CLOUDY    45  34  66 CALM      30.13S
6HR MIN TEMP:  44; 6HR MAX TEMP:  50;

CADILLAC       CLEAR     33  30  90 CALM      30.10R
CHARLEVOIX     CLOUDY    40  34  79 N7        30.16F WCI  35
FRANKFORT      CLEAR     43  32  63 NE5       30.12F
GAYLORD        CLOUDY    43  34  70 NE3       30.11S
6HR MIN TEMP:  43; 6HR MAX TEMP:  47;

GRAYLING       CLOUDY    44  33  66 CALM      30.11F
6HR MIN TEMP:  44; 6HR MAX TEMP:  49;

HARBOR SPRINGS CLOUDY    44  33  66 CALM      30.13F
HOUGHTON LAKE  CLEAR     40  32  73 NE5       30.10S
6HR MIN TEMP:  40; 6HR MAX TEMP:  48;

MANISTEE       CLEAR     36  28  75 CALM      30.13S
OSCODA         CLOUDY    46  35  67 N5        30.10S
PELLSTON       CLOUDY    44  34  67 N5        30.14S
6HR MIN TEMP:  44; 6HR MAX TEMP:  50;

ROGERS CITY    CLOUDY    42  36  78 N5        30.13S
TRAVERSE CITY  CLEAR     37  32  82 CALM      30.12S
6HR MIN TEMP:  37; 6HR MAX TEMP:  50;

$$
MIZ007>008-015-280700-
EASTERN UPPER MICHIGAN

CITY           SKY/WX    TMP DP  RH WIND       PRES   REMARKS
KINROSS        CLOUDY    37  36  93 N5        30.14S WCI  34
6HR MIN TEMP:  37; 6HR MAX TEMP:  45;

MACKINAC ISLAN CLOUDY    40  33  75 N6        30.13S
6HR MIN TEMP:  40; 6HR MAX TEMP:  46;

NEWBERRY       CLEAR     36  32  87 CALM      30.14F
S. S. MARIE    CLOUDY    41  33  73 NW3       30.13S
6HR MIN TEMP:  41; 6HR MAX TEMP:  47;

$$
MIZ004>006-011>014-085-280700-
CENTRAL UPPER MICHIGAN

CITY           SKY/WX    TMP DP  RH WIND       PRES   REMARKS
MANISTIQUE     CLOUDY    39  32  76 NW3       30.15S
6HR MIN TEMP:  39; 6HR MAX TEMP:  45;

ESCANABA       CLOUDY    37  30  75 NW5       30.17S WCI  34
6HR MIN TEMP:  37; 6HR MAX TEMP:  50;

MENOMINEE      CLEAR     37  30  75 N5        30.16S WCI  34
6HR MIN TEMP:  36; 6HR MAX TEMP:  48;

SAWYER-GWINN   CLEAR     32  28  86 CALM      30.15S
$$
MIZ001>003-009>011-084-280700-
WESTERN UPPER MICHIGAN

CITY           SKY/WX    TMP DP  RH WIND       PRES   REMARKS
IRON MOUNTAIN  CLEAR     34  29  82 CALM      30.16R
6HR MIN TEMP:  33; 6HR MAX TEMP:  60;

HOUGHTON       CLEAR     32  28  85 NW5       30.14S WCI  27
6HR MIN TEMP:  31; 6HR MAX TEMP:  50;

COPPER HARBOR    N/A     35  29  78 W5        30.15S WCI  31
6HR MIN TEMP:  33; 6HR MAX TEMP:  40;

IRONWOOD       CLEAR     36  34  93 CALM      30.13S
6HR MIN TEMP:  36; 6HR MAX TEMP:  57;

$$

ABBREVIATIONS USED IN REMARKS
   TC - TEMPERATURE IN CELSIUS
  WCI - WIND CHILL INDEX
   HX - HEAT INDEX
  VSB - VISIBILITY




USA.gov is the U.S. government's official web portal to all federal, state and local government web resources and services.